This is the latest recevied weather packets stored in our database for station/object DL9SEC-13. If no packets are shown the sender has not sent any weather packets the latest 10 day(s).
| Time | Temp. | Humidity | Pressure | Rain* | Wind** | Luminosity | Snow |
|---|---|---|---|---|---|---|---|
| 1777896603 | 22.22° C | 37% | 1016.3 hPa | 0 mm | - | - | - |
| 1777895703 | 22.22° C | 39% | 1016.3 hPa | 0 mm | - | - | - |
| 1777894802 | 22.22° C | 38% | 1016.4 hPa | 0 mm | - | - | - |
| 1777893903 | 22.22° C | 39% | 1016.4 hPa | 0 mm | - | - | - |
| 1777893003 | 23.33° C | 38% | 1016.5 hPa | 0 mm | - | - | - |
| 1777892103 | 22.78° C | 37% | 1016.7 hPa | 0 mm | - | - | - |
| 1777891203 | 23.33° C | 37% | 1016.9 hPa | 0 mm | - | - | - |
| 1777890303 | 22.22° C | 40% | 1017 hPa | 0 mm | - | - | - |
| 1777889403 | 22.78° C | 39% | 1017.1 hPa | 0 mm | - | - | - |
| 1777888503 | 22.22° C | 39% | 1017.2 hPa | 0 mm | - | - | - |
| 1777887603 | 21.11° C | 43% | 1017.5 hPa | 0 mm | - | - | - |
| 1777886703 | 21.11° C | 42% | 1017.6 hPa | 0 mm | - | - | - |
| 1777885803 | 22.22° C | 39% | 1017.6 hPa | 0 mm | - | - | - |
| 1777884903 | 20.56° C | 42% | 1017.8 hPa | 0 mm | - | - | - |
| 1777884002 | 20.56° C | 41% | 1017.8 hPa | 0 mm | - | - | - |
| 1777883103 | 21.67° C | 42% | 1017.9 hPa | 0 mm | - | - | - |
| 1777882204 | 21.67° C | 44% | 1018 hPa | 0 mm | - | - | - |
| 1777881303 | 20° C | 46% | 1018 hPa | 0 mm | - | - | - |
| 1777880403 | 18.89° C | 48% | 1017.9 hPa | 0 mm | - | - | - |
| 1777879503 | 18.33° C | 52% | 1017.9 hPa | 0 mm | - | - | - |
| 1777878602 | 17.78° C | 54% | 1018 hPa | 0 mm | - | - | - |
| 1777877704 | 16.11° C | 56% | 1017.9 hPa | 0 mm | - | - | - |
| 1777876804 | 16.11° C | 57% | 1017.9 hPa | 0 mm | - | - | - |
| 1777875902 | 14.44° C | 61% | 1018.1 hPa | 0 mm | - | - | - |
| 1777875003 | 13.89° C | 65% | 1018 hPa | 0 mm | - | - | - |
* Rain latest hour (hover to see other rain measurements)
** Current wind speed in m/s (hover to see current wind gust speed)